Dewpoint
-10 -9 -10 -11 -10 -10 -13 -12 -13 -14 -14 -15 -16 -16 -14 -13 -11 -13 -12 -11 -11 -10 -9 -8 -8 -8 -7 -7 -6 -6 -5 -4 -2 -3 -6 -4 -4 -4 -5 -5 -6 -4
-9 -6 -4 -8 -6 -7 -9 -10 -11 -12 -13 -13 -14 -13 -13 -13 -12 -12 -12 -11 -11 -10 -10 -8 -8 -7 -8 -7 -7 -6 -4 -4 -4 -4 -5 -5 -5 -4 -5 -6 -7 -5
-11 -9 -10 -10 -8 -8 -9 -9 -10 -11 -11 -12 -12 -11 -12 -11 -12 -12 -11 -11 -10 -8 -9 -9 -9 -9 -8 -8 -8 -6 -5 -5 -5 -4 -5 -6 -5 -4 -5 -5 -6 -6
-11 -10 -10 -9 -8 -8 -8 -8 -8 -10 -10 -10 -11 -12 -12 -11 -10 -11 -10 -8 -11 -11 -11 -11 -10 -8 -9 -9 -9 -6 -5 -5 -5 -5 -5 -5 -5 -6 -6 -6 -5 -5
-12 -11 -11 -10 -9 -8 -9 -10 -11 -10 -11 -10 -10 -9 -7 -10 -10 -10 -10 -9 -10 -10 -9 -10 -10 -9 -7 -7 -8 -7 -6 -5 -4 -7 -8 -8 -7 -7 -7 -6 -6 -8
-12 -11 -11 -10 -10 -10 -8 -10 -9 -9 -10 -9 -8 -7 -9 -9 -9 -9 -9 -10 -8 -8 -9 -7 -7 -8 -7 -7 -7 -7 -6 -6 -6 -8 -10 -9 -9 -7 -8 -9 -9 -10
-9 -10 -9 -9 -8 -9 -6 -6 -6 -5 -6 -6 -6 -8 -8 -9 -9 -9 -9 -8 -9 -7 -7 -8 -8 -8 -7 -7 -8 -8 -7 -8 -9 -9 -10 -9 -9 -9 -9 -9 -9 -10
-4 -4 -5 -5 -5 -6 -5 -4 -5 -7 -7 -6 -6 -7 -8 -9 -9 -9 -8 -8 -8 -8 -7 -8 -9 -7 -8 -9 -8 -9 -9 -9 -10 -10 -10 -10 -10 -11 -11 -10 -10 -11
-4 -4 -4 -5 -5 -5 -4 -5 -6 -5 -5 -7 -7 -7 -7 -8 -8 -9 -9 -9 -8 -8 -8 -8 -8 -9 -9 -9 -9 -10 -10 -10 -10 -10 -10 -10 -11 -11 -11 -11 -11 -11
-4 -5 -5 -5 -5 -5 -5 -6 -6 -6 -5 -7 -8 -7 -7 -8 -9 -8 -9 -8 -9 -9 -9 -9 -9 -9 -9 -9 -9 -9 -10 -9 -10 -10 -10 -10 -10 -11 -11 -11 -12 -12
-4 -4 -4 -5 -5 -5 -5 -6 -6 -7 -7 -8 -9 -9 -9 -10 -8 -9 -9 -8 -9 -9 -9 -9 -9 -9 -9 -9 -9 -9 -9 -9 -10 -10 -10 -10 -10 -10 -8 -10 -11 -11
-5 -4 -5 -4 -5 -5 -4 -5 -6 -6 -8 -9 -9 -8 -9 -9 -9 -8 -8 -9 -9 -9 -9 -9 -9 -9 -9 -9 -9 -9 -9 -9 -9 -9 -10 -10 -10 -10 -11 -11 -11 -11
-4 -4 -4 -5 -5 -4 -5 -6 -8 -8 -10 -9 -8 -9 -9 -9 -9 -9 -8 -9 -9 -9 -9 -9 -9 -9 -9 -9 -10 -10 -10 -10 -10 -10 -10 -10 -10 -10 -10 -10 -10 -10
-4 -4 -6 -7 -7 -7 -8 -8 -9 -8 -8 -8 -8 -9 -9 -9 -9 -9 -9 -9 -9 -9 -9 -9 -9 -10 -10 -10 -9 -10 -10 -10 -10 -10 -10 -11 -11 -10 -10 -10 -10 -10
-5 -6 -7 -7 -8 -9 -9 -9 -8 -9 -9 -9 -9 -8 -8 -9 -9 -9 -9 -9 -9 -9 -9 -9 -10 -10 -10 -10 -10 -11 -10 -11 -11 -10 -10 -11 -11 -10 -10 -9 -9 -9
-7 -7 -9 -9 -9 -9 -9 -9 -9 -9 -8 -9 -9 -9 -9 -9 -9 -9 -9 -10 -10 -10 -10 -10 -10 -10 -8 -7 -7 -8 -10 -10 -9 -8 -8 -7 -7 -6 -6 -5 -6 -7
-8 -9 -9 -8 -8 -8 -8 -8 -8 -9 -9 -10 -10 -10 -10 -10 -9 -10 -10 -10 -10 -11 -11 -11 -11 -10 -8 3 8 9 3 -0 -3 -4 -2 -2 -3 -4 -5 -5 -4 -4
-8 -8 -8 -8 -8 -8 -9 -10 -10 -10 -10 -10 -10 -10 -10 -9 -10 -10 -10 -11 -11 -11 -11 -11 -11 -8 2 7 10 11 9 5 4 3 3 2 1 1 -0 -0 -1 -1
-8 -8 -9 -9 -9 -9 -10 -10 -10 -10 -10 -11 -11 -10 -10 -11 -10 -10 -11 -11 -11 -11 -11 -11 -11 -8 0 7 9 11 12 7 5 4 3 2 2 1 1 0 -0 -1
-8 -8 -9 -9 -9 -9 -10 -10 -10 -10 -10 -10 -10 -9 -10 -10 -11 -11 -11 -11 -12 -12 -11 -11 -11 -9 -1 7 9 11 12 11 6 4 4 3 1 -0 -1 -3 -4 -5
-7 -9 -9 -10 -10 -10 -10 -10 -10 -11 -10 -10 -10 -9 -10 -11 -11 -12 -12 -11 -12 -12 -11 -12 -11 -9 3 7 9 10 11 9 4 3 1 -1 -3 -4 -5 -6 -6 -7
-9 -10 -10 -10 -10 -11 -11 -10 -11 -11 -11 -10 -10 -9 -10 -10 -10 -10 -11 -11 -11 -12 -12 -12 -11 -8 1 6 8 10 10 3 1 -1 -3 -4 -6 -7 -8 -8 -8 -9
-9 -10 -10 -11 -12 -12 -11 -11 -11 -11 -11 -10 -11 -10 -10 -11 -11 -11 -11 -11 -11 -11 -12 -12 -12 -10 -7 2 6 9 7 0 -2 -3 -5 -6 -7 -8 -8 -9 -9 -9
-11 -11 -12 -12 -13 -12 -11 -10 -11 -11 -11 -11 -11 -11 -11 -11 -12 -11 -11 -11 -11 -12 -12 -13 -12 -10 -9 -6 6 8 4 -1 -2 -4 -6 -7 -8 -9 -9 -9 -9 -7
-14 -14 -14 -14 -13 -11 -12 -11 -11 -11 -10 -10 -10 -11 -11 -11 -11 -11 -12 -11 -12 -12 -9 -10 -11 -10 -9 -9 1 7 3 -1 -3 -5 -7 -8 -9 -10 -10 -11 -11 -10
-14 -13 -13 -13 -11 -12 -11 -11 -11 -11 -11 -11 -11 -11 -11 -12 -12 -12 -13 -13 -12 -13 -13 -13 -13 -13 -12 -10 -0 5 6 -2 -4 -6 -8 -10 -11 -12 -12 -13 -13 -13